星链-6283 (STARLINK-6283 )

导读

STARLINK-6283是美国太空探索技术公司星链卫星互联网项目的组成部分,于2023年5月4日发射升空,星链计划旨在构建全球卫星互联网星座,该卫星入轨后将补充星座容量,提升全球范围内偏远地区的网络覆盖,为用户提供低延迟宽带互联网服务,也增强了星链系统整体服务稳定性与覆盖密度。

基本信息
目录编号:
56406
目录名称:
STARLINK-6283
国际标识:
2023-061AJ
轨道中心:
EARTH
卫星名称:
星链-6283
卫星全名:
星链-6283 (STARLINK-6283 )
卫星状态:
在轨 (已飞行1137 天)
发射日期:
2023-05-04 UTC
国别 :
美国 (US)
星等 :
--
轨道信息
数据来源 国际轨道数据
星历时间: 2026-06-14T03:57:07+0800
1天前
查看轨道信息
半长轴: 6861.193km
偏心率: 0.0001223
轨道倾角: 43.003°
近地点辐角 245.929°
升交点赤经 4.465°
平近点角 114.143°
近地点: 482.216km
远地点: 483.896km
周期: 94.267分钟
每日圈数: 15.275778
详细信息
固有亮度:
5
最大亮度:
2.5
卫星平台:
Starlink v1.5
覆盖范围:
全球
运营商:
太空探索技术公司
运营商所在国:
美国
制造商(研发单位):
太空探索技术公司
制造商所在国:
美国
使用方式:
暂无
卫星简介
星链(Starlink)计划是由太空探索技术公司(SpaceX)提出的一个巨型低轨卫星互联网星座项目,计划在2019年至2024年间在太空搭建由约1.2万颗卫星组成的“星链”网络,其中1584颗将部署在地球上空550千米处的近地轨道,并从2020年开始工作。该卫星仍在工作。
2D轨道图
3D轨道图
轨道高度分析图
轨道倾角分析图
轨道综合分析图
查看轨道综合分析图